Starlink 31718

operational
NORAD ID: 59556 Int'l Des: 2024-074 Owner: SPXS Country: US Constellation: starlink
LEOCIRCULAR

About Starlink 31718

Description loading...

Live Position

Loading 3D Globe...

Upcoming Passes

Altitude History

Altitude vs Time

uPlot chart will show altitude changes over time

Two-Line Element Set

1 59556U 24074Y 26061.31278319 .00001838 00000-0 76294-4 0 9998
2 59556 43.0014 25.3953 0001424 269.9980 90.0709 15.27577516104887
Epoch: Mar 2, 2026 • Age: 28 hours

Current Status

Altitude 486.2 km
Velocity 7.63 km/s
Sub-Earth Point 39.22°N, 142.96°W
Launch Date Apr 18, 2024
Age 1.8 years
Type internet

Technical Details

Classification Payload
Mass 730.00 kg
Dry Mass 700.00 kg
Total Mass 730.00 kg
Length 0.30 m
Diameter 4.10 m
Span 29.00 m
Shape Box + pan
Manufacturer SPXS
Bus Type Starlink V2M
Phase Status In Orbit
Owner/State SPXS/US

Large Constellations

Loading constellations...